This is the latest recevied weather packets stored in our database for station/object AF5AA. If no packets are shown the sender has not sent any weather packets the latest 10 day(s).
| Time | Temp. | Humidity | Pressure | Rain* | Wind** | Luminosity | Snow |
|---|---|---|---|---|---|---|---|
| 1777929490 | 26.67° C | 50% | 1009.9 hPa | 0 mm | - | 132 W/m² | - |
| 1777929185 | 26.67° C | 50% | 1010 hPa | 0 mm | - | 110 W/m² | - |
| 1777928883 | 26.11° C | 50% | 1010.1 hPa | 0 mm | - | 154 W/m² | - |
| 1777928580 | 26.11° C | 49% | 1010.3 hPa | 0 mm | - | 89 W/m² | - |
| 1777928277 | 26.11° C | 49% | 1010.2 hPa | 0 mm | - | 108 W/m² | - |
| 1777927975 | 26.11° C | 52% | 1010.3 hPa | 0 mm | - | 291 W/m² | - |
| 1777927673 | 26.11° C | 48% | 1010.5 hPa | 0 mm | - | 110 W/m² | - |
| 1777927371 | 26.67° C | 49% | 1010.8 hPa | 0 mm | - | 107 W/m² | - |
| 1777927070 | 26.67° C | 49% | 1010.5 hPa | 0 mm | - | 149 W/m² | - |
| 1777926766 | 27.22° C | 47% | 1010.7 hPa | 0 mm | - | 94 W/m² | - |
| 1777926461 | 27.22° C | 47% | 1010.9 hPa | 0 mm | - | 127 W/m² | - |
| 1777926159 | 26.67° C | 46% | 1010.7 hPa | 0 mm | - | 71 W/m² | - |
| 1777925856 | 26.67° C | 47% | 1010.9 hPa | 0 mm | - | 107 W/m² | - |
| 1777925553 | 26.67° C | 47% | 1010.9 hPa | 0 mm | - | 83 W/m² | - |
| 1777925251 | 26.67° C | 48% | 1011.1 hPa | 0 mm | - | 96 W/m² | - |
| 1777924946 | 26.67° C | 49% | 1010.9 hPa | 0 mm | - | 234 W/m² | - |
| 1777924643 | 26.67° C | 47% | 1011.4 hPa | 0 mm | - | 134 W/m² | - |
| 1777924339 | 26.67° C | 47% | 1011.4 hPa | 0 mm | - | 512 W/m² | - |
| 1777924036 | 26.67° C | 48% | 1011.4 hPa | 0 mm | - | 327 W/m² | - |
| 1777923732 | 26.11° C | 47% | 1011.5 hPa | 0 mm | - | 60 W/m² | - |
| 1777923429 | 26.11° C | 48% | 1011.8 hPa | 0 mm | - | 89 W/m² | - |
| 1777923126 | 26.11° C | 47% | 1011.8 hPa | 0 mm | - | 196 W/m² | - |
| 1777922824 | 26.11° C | 47% | 1011.7 hPa | 0 mm | - | 116 W/m² | - |
| 1777922522 | 25.56° C | 48% | 1011.7 hPa | 0 mm | - | 515 W/m² | - |
| 1777922221 | 25.56° C | 48% | 1011.9 hPa | 0 mm | - | 90 W/m² | - |
* Rain latest hour (hover to see other rain measurements)
** Current wind speed in m/s (hover to see current wind gust speed)